Location: Colonia Mina de C?rbuni
(46.1667°N, 22.7167°E)
Time: 04:24:55
(UTC+00:00)

Transit 4A - Pass Details

Date: 26 April 2024
Orbit: 871 x 971 km, 66.8° (Epoch: 24 May)

Event Time Altitude Azimuth Distance (km) Brightness Sun altitude
Rises 17:55:24 0° 328° (NNW) 3,470 12.0 -4.6°
Reaches altitude 10° 17:57:56 10° 332° (NNW) 2,529 11.1 -5.0°
Maximum altitude 18:03:42 59° 52° (NE) 1,005 8.0 -5.9°
Drops below altitude 10° 18:09:30 10° 132° (SE) 2,544 9.6 -6.8°
Enters shadow 18:10:11 - 134° (SE) 2,797 9.8 -6.9°
